AVA8563 SKBG-SKBO

Flight info

Callsign AVA8563
Flight time 0h 32m
Altitude 24000
Route UMKAG1A UMKAG Z010 AKSOK G431 ILSEV ILSEV5E
Aircraft A320/M-SDE3FGHIRWY/LB1

Departure

Time 2026-05-04 20:47
Airport Palonegro Airport (SKBG)

Arrival

Time 2026-05-04 21:19
Airport El Dorado International Airport (SKBO)
Time Latitude Longitude Altitude Speed Heading
2026-05-04 20:02 7.12741 -73.18196 3905 ft 0 kts 10°
2026-05-04 20:39 7.12733 -73.18197 3902 ft 3 kts 10°
2026-05-04 20:39 7.12711 -73.18202 3903 ft 2 kts 11°
2026-05-04 20:39 7.12694 -73.18204 3904 ft 3 kts 330°
2026-05-04 20:39 7.12687 -73.18191 3905 ft 3 kts 275°
2026-05-04 20:40 7.12684 -73.18170 3905 ft 3 kts 281°
2026-05-04 20:40 7.12682 -73.18158 3902 ft 0 kts 281°
2026-05-04 20:42 7.12682 -73.18159 3905 ft 1 kts 281°
2026-05-04 20:42 7.12688 -73.18188 3902 ft 8 kts 281°
2026-05-04 20:42 7.12697 -73.18258 3901 ft 10 kts 266°
2026-05-04 20:42 7.12686 -73.18323 3902 ft 8 kts 273°
2026-05-04 20:43 7.12689 -73.18350 3905 ft 0 kts 276°
2026-05-04 20:43 7.12681 -73.18371 3905 ft 7 kts 225°
2026-05-04 20:43 7.12631 -73.18366 3902 ft 8 kts 160°
2026-05-04 20:43 7.12576 -73.18344 3901 ft 9 kts 159°
2026-05-04 20:44 7.12513 -73.18320 3898 ft 10 kts 159°
2026-05-04 20:44 7.12443 -73.18294 3895 ft 11 kts 159°
2026-05-04 20:44 7.12365 -73.18264 3891 ft 13 kts 159°
2026-05-04 20:44 7.12288 -73.18281 3888 ft 13 kts 244°
2026-05-04 20:45 7.12223 -73.18317 3886 ft 13 kts 159°
2026-05-04 20:45 7.12125 -73.18278 3881 ft 18 kts 160°
2026-05-04 20:45 7.11981 -73.18225 3875 ft 25 kts 160°
2026-05-04 20:45 7.11826 -73.18167 3866 ft 20 kts 160°
2026-05-04 20:46 7.11751 -73.18122 3863 ft 8 kts 132°
2026-05-04 20:46 7.11743 -73.18130 3863 ft 1 kts 273°
2026-05-04 20:46 7.11800 -73.18157 3868 ft 27 kts 340°
2026-05-04 20:46 7.12237 -73.18321 3885 ft 104 kts 339°
2026-05-04 20:47 7.13120 -73.18653 3923 ft 163 kts 340°
2026-05-04 20:47 7.14196 -73.19047 4558 ft 166 kts 340°
2026-05-04 20:47 7.15292 -73.19471 5102 ft 174 kts 338°
2026-05-04 20:47 7.16435 -73.19912 5579 ft 176 kts 340°
2026-05-04 20:48 7.17576 -73.20345 6159 ft 174 kts 340°
2026-05-04 20:48 7.18709 -73.20772 6692 ft 174 kts 341°
2026-05-04 20:48 7.19847 -73.21199 7140 ft 179 kts 341°
2026-05-04 20:48 7.21090 -73.21663 7293 ft 201 kts 341°
2026-05-04 20:49 7.22472 -73.22180 7431 ft 223 kts 340°
2026-05-04 20:49 7.23860 -73.23030 7586 ft 248 kts 310°
2026-05-04 20:49 7.24556 -73.24675 7847 ft 271 kts 274°
2026-05-04 20:49 7.24167 -73.26577 8173 ft 290 kts 239°
2026-05-04 20:50 7.22855 -73.28144 8774 ft 297 kts 221°
2026-05-04 20:50 7.21229 -73.29452 9499 ft 301 kts 216°
2026-05-04 20:50 7.19543 -73.30716 10230 ft 303 kts 216°
2026-05-04 20:50 7.17880 -73.32042 10936 ft 307 kts 219°
2026-05-04 20:51 7.16263 -73.33459 11662 ft 310 kts 221°
2026-05-04 20:51 7.14687 -73.34952 12386 ft 313 kts 223°
2026-05-04 20:51 7.13100 -73.36463 13083 ft 316 kts 219°
2026-05-04 20:51 7.11397 -73.37875 13766 ft 319 kts 216°
2026-05-04 20:52 7.09603 -73.39236 14185 ft 332 kts 214°
2026-05-04 20:52 7.07671 -73.40641 14322 ft 353 kts 214°
2026-05-04 20:52 7.05616 -73.42117 14450 ft 372 kts 214°
2026-05-04 20:52 7.03466 -73.43670 14635 ft 387 kts 214°
2026-05-04 20:53 7.01264 -73.45278 15061 ft 394 kts 214°
2026-05-04 20:53 6.99042 -73.46916 15595 ft 398 kts 214°
2026-05-04 20:53 6.96805 -73.48577 16122 ft 402 kts 214°
2026-05-04 20:53 6.94579 -73.50302 16643 ft 406 kts 217°
2026-05-04 20:54 6.92384 -73.52113 17156 ft 410 kts 218°
2026-05-04 20:54 6.90200 -73.53980 17652 ft 414 kts 219°
2026-05-04 20:54 6.88008 -73.55879 18157 ft 418 kts 219°
2026-05-04 20:54 6.85793 -73.57794 18658 ft 421 kts 218°
2026-05-04 20:55 6.83552 -73.59711 19154 ft 424 kts 218°
2026-05-04 20:55 6.81285 -73.61630 19630 ft 427 kts 218°
2026-05-04 20:55 6.78997 -73.63554 20095 ft 430 kts 218°
2026-05-04 20:55 6.76692 -73.65487 20543 ft 433 kts 218°
2026-05-04 20:56 6.74369 -73.67430 20969 ft 435 kts 218°
2026-05-04 20:56 6.72033 -73.69383 21376 ft 438 kts 218°
2026-05-04 20:56 6.69684 -73.71353 21764 ft 441 kts 218°
2026-05-04 20:56 6.67323 -73.73338 22150 ft 444 kts 219°
2026-05-04 20:57 6.64984 -73.75311 22521 ft 446 kts 219°
2026-05-04 20:57 6.62604 -73.77322 22818 ft 448 kts 219°
2026-05-04 20:57 6.60189 -73.79368 22883 ft 448 kts 219°
2026-05-04 20:57 6.57808 -73.81389 22869 ft 448 kts 219°
2026-05-04 20:58 6.55465 -73.83382 22867 ft 447 kts 219°
2026-05-04 20:58 6.53089 -73.85403 22879 ft 447 kts 219°
2026-05-04 20:58 6.50713 -73.87420 22879 ft 447 kts 219°
2026-05-04 20:58 6.48258 -73.89329 22887 ft 446 kts 212°
2026-05-04 20:59 6.45540 -73.90810 22887 ft 445 kts 202°
2026-05-04 20:59 6.42619 -73.91807 22894 ft 443 kts 192°
2026-05-04 20:59 6.39599 -73.92399 22891 ft 442 kts 189°
2026-05-04 20:59 6.36570 -73.92960 22896 ft 443 kts 189°
2026-05-04 21:00 6.33542 -73.93524 22850 ft 442 kts 189°
2026-05-04 21:00 6.30517 -73.94092 22857 ft 442 kts 189°
2026-05-04 21:00 6.27450 -73.94665 22860 ft 443 kts 189°
2026-05-04 21:00 6.24460 -73.95223 22859 ft 443 kts 189°
2026-05-04 21:01 6.21433 -73.95787 22859 ft 442 kts 189°
2026-05-04 21:01 6.18407 -73.96350 22876 ft 442 kts 189°
2026-05-04 21:01 6.15380 -73.96914 22898 ft 442 kts 189°
2026-05-04 21:01 6.12357 -73.97481 22932 ft 442 kts 189°
2026-05-04 21:02 6.09331 -73.98053 22937 ft 443 kts 189°
2026-05-04 21:02 6.06298 -73.98616 22952 ft 444 kts 189°
2026-05-04 21:02 6.03264 -73.99178 22954 ft 443 kts 189°
2026-05-04 21:02 6.00232 -73.99745 22952 ft 442 kts 189°
2026-05-04 21:03 5.97209 -74.00315 22959 ft 442 kts 189°
2026-05-04 21:03 5.94186 -74.00890 22966 ft 442 kts 189°
2026-05-04 21:03 5.91163 -74.01467 22994 ft 441 kts 189°
2026-05-04 21:03 5.88141 -74.02047 23237 ft 443 kts 189°
2026-05-04 21:04 5.85102 -74.02630 23490 ft 446 kts 189°
2026-05-04 21:04 5.82053 -74.03217 23730 ft 447 kts 189°
2026-05-04 21:04 5.79000 -74.03803 23970 ft 447 kts 189°
2026-05-04 21:04 5.75934 -74.04387 24125 ft 449 kts 189°
2026-05-04 21:05 5.72835 -74.04973 24176 ft 458 kts 189°
2026-05-04 21:05 5.69676 -74.05567 24182 ft 465 kts 189°
2026-05-04 21:05 5.66482 -74.06167 24189 ft 468 kts 189°
2026-05-04 21:05 5.63277 -74.06769 24201 ft 469 kts 189°
2026-05-04 21:06 5.60065 -74.07374 24167 ft 470 kts 189°
2026-05-04 21:06 5.56880 -74.07975 23822 ft 461 kts 189°
2026-05-04 21:06 5.53719 -74.08572 22773 ft 464 kts 189°
2026-05-04 21:06 5.50579 -74.09167 22370 ft 452 kts 189°
2026-05-04 21:07 5.47539 -74.09748 22152 ft 437 kts 189°
2026-05-04 21:07 5.44616 -74.10420 21899 ft 426 kts 197°
2026-05-04 21:07 5.41952 -74.11631 21651 ft 417 kts 210°
2026-05-04 21:07 5.39664 -74.13362 21396 ft 408 kts 223°
2026-05-04 21:08 5.37766 -74.15436 21183 ft 398 kts 227°
2026-05-04 21:08 5.35957 -74.17496 20903 ft 390 kts 227°
2026-05-04 21:08 5.34169 -74.19523 20493 ft 386 kts 227°
2026-05-04 21:08 5.32392 -74.21529 20031 ft 384 kts 227°
2026-05-04 21:09 5.30623 -74.23522 19591 ft 381 kts 227°
2026-05-04 21:09 5.28868 -74.25503 19148 ft 379 kts 227°
2026-05-04 21:09 5.27040 -74.27384 18721 ft 374 kts 217°
2026-05-04 21:09 5.24823 -74.28693 18304 ft 368 kts 200°
2026-05-04 21:10 5.22450 -74.29627 17854 ft 366 kts 199°
2026-05-04 21:10 5.20102 -74.30534 17669 ft 356 kts 199°
2026-05-04 21:10 5.17819 -74.31408 17536 ft 346 kts 198°
2026-05-04 21:10 5.15597 -74.32256 17312 ft 339 kts 198°
2026-05-04 21:11 5.13404 -74.33092 16992 ft 336 kts 198°
2026-05-04 21:11 5.11964 -74.33643 16770 ft 334 kts 199°
2026-05-04 21:11 5.09797 -74.34471 16421 ft 332 kts 199°
2026-05-04 21:11 5.07647 -74.35294 16074 ft 330 kts 199°
2026-05-04 21:12 5.04815 -74.36377 15639 ft 327 kts 199°
2026-05-04 21:12 5.02692 -74.37190 15289 ft 326 kts 199°
2026-05-04 21:12 5.00592 -74.37994 14790 ft 321 kts 199°
2026-05-04 21:12 4.99190 -74.38532 14363 ft 319 kts 199°
2026-05-04 21:13 4.97123 -74.39322 13664 ft 317 kts 198°
2026-05-04 21:13 4.94977 -74.39783 12822 ft 316 kts 179°
2026-05-04 21:13 4.92831 -74.39475 12250 ft 306 kts 163°
2026-05-04 21:13 4.90832 -74.38951 12098 ft 287 kts 164°
2026-05-04 21:14 4.88956 -74.38468 11970 ft 272 kts 163°
2026-05-04 21:14 4.87256 -74.37754 11852 ft 259 kts 145°
2026-05-04 21:14 4.85953 -74.36599 11833 ft 243 kts 127°
2026-05-04 21:14 4.84939 -74.35270 11854 ft 237 kts 126°
2026-05-04 21:15 4.83949 -74.33959 11867 ft 235 kts 126°
2026-05-04 21:15 4.82961 -74.32653 11895 ft 235 kts 126°
2026-05-04 21:15 4.81974 -74.31349 11805 ft 235 kts 126°
2026-05-04 21:15 4.80999 -74.30062 11565 ft 229 kts 126°
2026-05-04 21:16 4.80050 -74.28808 11246 ft 223 kts 126°
2026-05-04 21:16 4.79126 -74.27587 10957 ft 217 kts 126°
2026-05-04 21:16 4.78236 -74.26411 10677 ft 212 kts 126°
2026-05-04 21:16 4.77353 -74.25245 10396 ft 206 kts 125°
2026-05-04 21:17 4.76517 -74.24141 10129 ft 191 kts 124°
2026-05-04 21:17 4.75751 -74.23130 9898 ft 174 kts 124°
2026-05-04 21:17 4.75042 -74.22193 9670 ft 165 kts 124°
2026-05-04 21:17 4.74356 -74.21287 9454 ft 162 kts 124°
2026-05-04 21:18 4.73681 -74.20395 9237 ft 160 kts 124°
2026-05-04 21:18 4.73009 -74.19506 9033 ft 160 kts 124°
2026-05-04 21:18 4.72339 -74.18618 8813 ft 159 kts 125°
2026-05-04 21:18 4.71677 -74.17734 8605 ft 158 kts 125°
2026-05-04 21:19 4.71010 -74.16860 8422 ft 158 kts 125°
2026-05-04 21:19 4.70398 -74.16048 8374 ft 125 kts 128°
2026-05-04 21:19 4.69978 -74.15492 8373 ft 75 kts 127°
2026-05-04 21:19 4.69767 -74.15196 8371 ft 38 kts 118°
2026-05-04 21:20 4.69716 -74.14996 8373 ft 19 kts 95°
2026-05-04 21:20 4.69711 -74.14942 8373 ft 6 kts 95°
2026-05-04 21:20 4.69707 -74.14895 8373 ft 8 kts 88°
2026-05-04 21:20 4.69731 -74.14838 8373 ft 10 kts 53°
2026-05-04 21:21 4.69793 -74.14789 8373 ft 13 kts 37°
2026-05-04 21:21 4.69854 -74.14725 8373 ft 12 kts 87°
2026-05-04 21:21 4.69803 -74.14651 8373 ft 13 kts 128°
2026-05-04 21:21 4.69745 -74.14574 8373 ft 14 kts 127°
2026-05-04 21:22 4.69729 -74.14535 8373 ft 5 kts 63°
2026-05-04 21:22 4.69755 -74.14512 8373 ft 3 kts 37°
2026-05-04 21:22 4.69763 -74.14505 8371 ft 0 kts 37°